Weather History for Hilo, HI

Change the Weather History Date:

Friday, October 3, 2014

  Actual Average Record
Temperature  
Mean Temperature 80 °F 76 °F  
Max Temperature 88 °F 83 °F 88 °F (1966)
Min Temperature 72 °F 69 °F 62 °F (1959)
Degree Days  
Heating Degree Days 0 0  
Month to date heating degree days 0 0  
Since 1 July heating degree days 0 0  
Cooling Degree Days 15 11  
Month to date cooling degree days 43 33  
Year to date cooling degree days 2764 2441  
Growing Degree Days 29 (Base 50)    
Moisture  
Dew Point 71 °F    
Average Humidity 74    
Maximum Humidity 87    
Minimum Humidity 61    
Precipitation  
Precipitation 0.03 in 0.29 in 4.86 in (1993)
Month to date precipitation 0.54 0.89  
Year to date precipitation 85.69 90.77  
Snow  
Snow 0.00 in - - ()
Month to date snowfall 0.0  
Since 1 July snowfall 0.0  
Since 1 September snowfall 0.0  
Snow Depth 0.00 in    
Sea Level Pressure  
Sea Level Pressure 29.96 in    
Wind  
Wind Speed 8 mph (WSW)    
Max Wind Speed 16 mph    
Max Gust Speed 23 mph    
Visibility 9 miles    
Events Rain    
T = Trace of Precipitation, MM = Missing Value Source: NWS Daily Summary

Daily Weather History Graph

Daily Weather History Graph

Search for Another Location

Airport:

Trip Planner

Search our weather history database for the weather conditions in past years. The results will help you decide how hot, cold, wet, or windy it might be!

Date:

Astronomy

Oct. 03, 2014 Rise Set
Actual Time 6:11 AM HST 6:06 PM HST
Civil Twilight 5:49 AM HST 6:28 PM HST
Nautical Twilight 5:24 AM HST 6:53 PM HST
Astronomical Twilight 4:58 AM HST 7:19 PM HST
Moon 2:33 PM HST (10/3) 1:22 AM HST (10/3)
Length of Visible Light 12h 38m
Length of Day
11h 54m
Waxing Gibbous, 73% of the Moon is Illuminated
Oct 3
Waxing Gibbous
Oct 8
Full
Oct 15
Last Quarter
Oct 23
New
Oct 30
First Quarter

Hourly Weather History & Observations

Time (HST) Temp. Heat Index Dew Point Humidity Pressure Visibility Wind Dir Wind Speed Gust Speed Precip Events Conditions
12:53 AM 73.0 °F - 69.1 °F 87% 29.95 in 10.0 mi SSW 5.8 mph - N/A   Overcast
1:53 AM 73.9 °F - 68.0 °F 82% 29.93 in 10.0 mi WSW 6.9 mph - N/A   Overcast
2:53 AM 73.9 °F - 69.1 °F 85% 29.92 in 10.0 mi WSW 4.6 mph - N/A   Overcast
3:53 AM 73.9 °F - 68.0 °F 82% 29.92 in 10.0 mi WSW 5.8 mph - N/A   Overcast
4:53 AM 73.0 °F - 66.9 °F 81% 29.94 in 8.0 mi East 10.4 mph - 0.00 in Rain Light Rain
5:53 AM 73.0 °F - 68.0 °F 84% 29.94 in 10.0 mi West 3.5 mph - 0.03 in   Mostly Cloudy
6:53 AM 73.0 °F - 68.0 °F 84% 29.95 in 10.0 mi SW 6.9 mph - N/A   Mostly Cloudy
7:53 AM 78.1 °F - 69.1 °F 74% 29.97 in 10.0 mi SW 4.6 mph - N/A   Mostly Cloudy
8:53 AM 84.0 °F 87.8 °F 69.1 °F 61% 29.97 in 10.0 mi NNW 5.8 mph - N/A   Mostly Cloudy
9:53 AM 84.9 °F 90.1 °F 71.1 °F 63% 29.97 in 10.0 mi NE 9.2 mph - N/A   Clear
10:53 AM 84.0 °F 88.4 °F 70.0 °F 63% 29.96 in 10.0 mi East 9.2 mph - N/A   Scattered Clouds
11:53 AM 84.9 °F 89.4 °F 70.0 °F 61% 29.94 in 10.0 mi ESE 9.2 mph - N/A   Overcast
12:53 PM 86.0 °F 92.2 °F 72.0 °F 63% 29.91 in 10.0 mi East 13.8 mph - N/A   Mostly Cloudy
1:53 PM 84.9 °F 90.7 °F 72.0 °F 65% 29.90 in 10.0 mi East 11.5 mph - N/A   Clear
2:53 PM 82.9 °F 87.5 °F 71.1 °F 67% 29.90 in 10.0 mi East 9.2 mph - N/A   Scattered Clouds
3:53 PM 80.1 °F 84.2 °F 73.0 °F 79% 29.91 in 10.0 mi ENE 10.4 mph - N/A   Mostly Cloudy
4:53 PM 79.0 °F - 71.1 °F 77% 29.93 in 10.0 mi East 8.1 mph - N/A   Overcast
5:53 PM 78.1 °F - 72.0 °F 81% 29.95 in 10.0 mi ENE 8.1 mph - N/A   Overcast
6:53 PM 75.9 °F - 72.0 °F 87% 29.97 in 6.0 mi North 9.2 mph - 0.04 in Rain Light Rain
7:21 PM 75.0 °F - 72.0 °F 90% 29.98 in 2.5 mi WNW 8.1 mph - 0.11 in Rain Heavy Rain
7:29 PM 75.0 °F - 73.0 °F 94% 29.98 in 3.0 mi West 10.4 mph - 0.17 in Rain Heavy Rain
7:53 PM 73.9 °F - 72.0 °F 93% 29.99 in 8.0 mi West 8.1 mph - 0.23 in Rain Light Rain
8:11 PM 73.9 °F - 72.0 °F 93% 29.99 in 10.0 mi WSW 5.8 mph - 0.01 in Rain Light Rain
8:50 PM 73.4 °F - 71.6 °F 94% 30.00 in 10.0 mi WSW 8.1 mph - 0.04 in Rain Light Rain
8:53 PM 73.9 °F - 72.0 °F 93% 30.00 in 10.0 mi WSW 8.1 mph - 0.04 in Rain Light Rain
9:40 PM 73.9 °F - 71.1 °F 91% 30.01 in 4.0 mi Variable 3.5 mph - 0.01 in Rain Heavy Rain
9:49 PM 73.4 °F - 71.6 °F 94% 30.01 in 5.0 mi West 6.9 mph - 0.06 in Rain Light Rain
9:53 PM 73.9 °F - 72.0 °F 93% 30.01 in 8.0 mi West 5.8 mph - 0.06 in Rain Light Rain
10:53 PM 73.0 °F - 72.0 °F 96% 29.99 in 10.0 mi WSW 6.9 mph - 0.05 in Rain Light Rain
11:53 PM 73.9 °F - 71.1 °F 91% 29.98 in 10.0 mi WSW 6.9 mph - 0.00 in Rain Light Rain